QPF
0.03 0.05 0.12 0.20 0.16 0.09 0.06 0.03 0.03 0.02 0.02 0.03 0.03 0.03 0.04 0.06 0.08 0.09 0.10 0.12 0.14 0.16 0.18 0.16 0.10 0.07 0.06 0.04 0.02 0.01 0.00 0.00 0.00 0.00 0.00 0.01 0.02 0.02 0.02 0.02 0.02 0.02 0.01
0.02 0.05 0.15 0.26 0.26 0.18 0.10 0.08 0.07 0.06 0.04 0.04 0.05 0.07 0.09 0.10 0.12 0.14 0.18 0.21 0.23 0.22 0.20 0.16 0.13 0.10 0.07 0.04 0.02 0.01 0.00 0.00 0.00 0.00 0.00 0.00 0.00 0.00 0.00 0.00 0.01 0.01 0.01
0.01 0.04 0.10 0.19 0.22 0.25 0.17 0.10 0.11 0.13 0.08 0.08 0.09 0.11 0.14 0.17 0.20 0.21 0.26 0.29 0.29 0.27 0.24 0.17 0.13 0.13 0.09 0.05 0.03 0.01 0.01 0.00 0.00 0.00 0.00 0.00 0.00 0.00 0.00 0.00 0.00 0.00 0.00
0.01 0.03 0.06 0.17 0.20 0.21 0.23 0.18 0.15 0.14 0.15 0.15 0.17 0.20 0.24 0.28 0.30 0.31 0.32 0.32 0.32 0.29 0.24 0.21 0.17 0.12 0.07 0.05 0.04 0.02 0.01 0.00 0.00 0.00 0.00 0.00 0.00 0.00 0.00 0.00 0.00 0.00 0.00
0.03 0.04 0.06 0.13 0.15 0.16 0.16 0.16 0.17 0.20 0.25 0.31 0.34 0.36 0.39 0.42 0.42 0.41 0.37 0.35 0.32 0.28 0.23 0.18 0.14 0.10 0.07 0.05 0.03 0.01 0.00 0.00 0.00 0.00 0.00 0.00 0.00 0.01 0.01 0.01 0.00 0.00 0.01
0.03 0.03 0.05 0.10 0.10 0.11 0.13 0.16 0.23 0.30 0.32 0.34 0.38 0.41 0.44 0.47 0.47 0.40 0.35 0.32 0.28 0.23 0.18 0.14 0.11 0.08 0.06 0.03 0.02 0.01 0.00 0.00 0.00 0.00 0.00 0.01 0.01 0.01 0.01 0.01 0.00 0.00 0.00
0.03 0.04 0.04 0.05 0.07 0.08 0.09 0.12 0.15 0.18 0.21 0.26 0.31 0.34 0.34 0.36 0.37 0.38 0.36 0.29 0.22 0.16 0.12 0.09 0.07 0.04 0.03 0.02 0.01 0.00 0.00 0.00 0.00 0.00 0.00 0.00 0.00 0.00 0.00 0.01 0.00 0.00 0.00
0.04 0.03 0.04 0.04 0.05 0.05 0.05 0.07 0.08 0.10 0.12 0.14 0.16 0.19 0.21 0.24 0.25 0.22 0.19 0.15 0.12 0.09 0.08 0.07 0.05 0.02 0.01 0.00 0.00 0.00 0.00 0.00 0.00 0.00 0.00 0.00 0.00 0.00 0.00 0.00 0.00 0.00 0.00
0.04 0.03 0.03 0.03 0.03 0.03 0.04 0.04 0.04 0.05 0.06 0.08 0.09 0.11 0.12 0.13 0.12 0.10 0.09 0.08 0.06 0.05 0.04 0.04 0.02 0.00 0.00 0.00 0.00 0.00 0.00 0.00 0.00 0.00 0.00 0.00 0.00 0.00 0.00 0.00 0.00 0.00 0.00
0.04 0.03 0.03 0.03 0.02 0.02 0.02 0.02 0.03 0.03 0.03 0.04 0.05 0.05 0.06 0.06 0.06 0.05 0.05 0.04 0.03 0.02 0.01 0.01 0.00 0.00 0.00 0.00 0.00 0.00 0.00 0.00 0.00 0.00 0.00 0.00 0.00 0.00 0.00 0.00 0.00 0.00 0.00
0.04 0.03 0.03 0.02 0.01 0.01 0.01 0.02 0.02 0.02 0.02 0.02 0.02 0.02 0.02 0.02 0.02 0.02 0.01 0.01 0.01 0.01 0.00 0.00 0.00 0.00 0.00 0.00 0.00 0.00 0.00 0.00 0.00 0.00 0.00 0.00 0.00 0.00 0.00 0.00 0.00 0.00 0.00
0.04 0.03 0.02 0.02 0.01 0.01 0.01 0.01 0.02 0.02 0.02 0.01 0.01 0.01 0.01 0.01 0.01 0.01 0.01 0.01 0.00 0.00 0.00 0.00 0.00 0.00 0.00 0.00 0.00 0.00 0.00 0.00 0.00 0.00 0.00 0.00 0.00 0.00 0.00 0.00 0.00 0.00 0.00
0.05 0.03 0.02 0.01 0.01 0.01 0.01 0.01 0.01 0.01 0.01 0.01 0.01 0.01 0.01 0.01 0.01 0.01 0.00 0.00 0.00 0.00 0.00 0.00 0.00 0.00 0.00 0.00 0.00 0.00 0.00 0.00 0.00 0.00 0.00 0.00 0.00 0.00 0.00 0.00 0.00 0.00 0.00
0.06 0.04 0.02 0.01 0.01 0.01 0.01 0.01 0.01 0.01 0.01 0.01 0.00 0.00 0.00 0.00 0.00 0.00 0.00 0.00 0.00 0.00 0.00 0.00 0.00 0.00 0.00 0.00 0.00 0.00 0.00 0.00 0.00 0.00 0.00 0.00 0.00 0.00 0.00 0.00 0.00 0.00 0.00
0.08 0.06 0.03 0.02 0.01 0.01 0.01 0.01 0.01 0.01 0.01 0.00 0.00 0.00 0.00 0.00 0.00 0.00 0.00 0.00 0.00 0.00 0.00 0.00 0.00 0.00 0.00 0.00 0.00 0.00 0.00 0.00 0.00 0.00 0.00 0.00 0.01 0.01 0.00 0.00 0.00 0.00 0.00
0.08 0.06 0.04 0.03 0.03 0.02 0.02 0.01 0.01 0.01 0.01 0.00 0.00 0.00 0.00 0.00 0.00 0.00 0.00 0.00 0.00 0.00 0.00 0.00 0.00 0.00 0.00 0.00 0.00 0.00 0.00 0.00 0.00 0.00 0.00 0.00 0.01 0.01 0.00 0.00 0.00 0.00 0.00
0.07 0.06 0.04 0.03 0.03 0.03 0.02 0.01 0.01 0.00 0.00 0.00 0.00 0.00 0.00 0.00 0.00 0.00 0.00 0.00 0.00 0.00 0.00 0.00 0.00 0.00 0.00 0.00 0.00 0.00 0.00 0.00 0.00 0.00 0.00 0.00 0.01 0.00 0.00 0.00 0.00 0.00 0.00
0.11 0.08 0.06 0.05 0.04 0.02 0.01 0.01 0.00 0.00 0.00 0.00 0.00 0.00 0.00 0.00 0.00 0.00 0.00 0.00 0.00 0.00 0.00 0.00 0.00 0.00 0.00 0.00 0.00 0.00 0.00 0.00 0.00 0.00 0.00 0.00 0.00 0.00 0.00 0.00 0.00 0.00 0.00
0.09 0.07 0.05 0.03 0.01 0.01 0.00 0.00 0.00 0.00 0.00 0.00 0.00 0.00 0.00 0.00 0.00 0.00 0.00 0.00 0.00 0.00 0.00 0.00 0.00 0.00 0.00 0.00 0.00 0.00 0.00 0.00 0.00 0.00 0.00 0.00 0.00 0.00 0.00 0.00 0.00 0.00 0.00
0.04 0.03 0.02 0.01 0.01 0.00 0.00 0.00 0.00 0.00 0.00 0.00 0.00 0.00 0.00 0.00 0.00 0.00 0.00 0.00 0.00 0.00 0.00 0.00 0.00 0.00 0.00 0.00 0.00 0.00 0.00 0.00 0.00 0.00 0.00 0.00 0.00 0.00 0.00 0.00 0.00 0.00 0.00
0.03 0.01 0.01 0.00 0.00 0.00 0.00 0.01 0.01 0.00 0.00 0.00 0.00 0.00 0.00 0.00 0.00 0.00 0.00 0.00 0.01 0.01 0.00 0.00 0.00 0.00 0.00 0.00 0.00 0.00 0.00 0.00 0.00 0.00 0.00 0.00 0.00 0.00 0.00 0.00 0.00 0.00 0.00
0.01 0.00 0.00 0.00 0.00 0.01 0.01 0.01 0.01 0.01 0.00 0.00 0.00 0.00 0.00 0.00 0.00 0.00 0.01 0.01 0.00 0.00 0.01 0.00 0.00 0.00 0.00 0.00 0.00 0.00 0.00 0.00 0.00 0.00 0.00 0.00 0.00 0.00 0.00 0.01 0.01 0.00 0.01
0.00 0.00 0.00 0.01 0.01 0.01 0.01 0.01 0.01 0.00 0.00 0.00 0.00 0.00 0.00 0.01 0.00 0.00 0.01 0.01 0.00 0.00 0.00 0.00 0.00 0.00 0.00 0.00 0.00 0.00 0.00 0.00 0.00 0.00 0.00 0.00 0.00 0.00 0.01 0.01 0.01 0.01 0.01
0.01 0.01 0.01 0.00 0.00 0.00 0.00 0.00 0.00 0.00 0.00 0.01 0.00 0.00 0.00 0.01 0.01 0.01 0.00 0.00 0.00 0.00 0.00 0.00 0.00 0.00 0.00 0.00 0.00 0.00 0.00 0.00 0.00 0.00 0.00 0.01 0.01 0.01 0.02 0.02 0.01 0.01 0.01
0.00 0.01 0.00 0.00 0.00 0.00 0.00 0.00 0.00 0.00 0.00 0.00 0.00 0.00 0.01 0.01 0.01 0.01 0.01 0.00 0.00 0.00 0.00 0.00 0.00 0.00 0.00 0.00 0.00 0.00 0.00 0.00 0.00 0.01 0.01 0.01 0.02 0.02 0.02 0.02 0.02 0.01 0.01
0.00 0.00 0.00 0.00 0.00 0.00 0.00 0.00 0.00 0.00 0.00 0.00 0.00 0.00 0.01 0.01 0.02 0.02 0.01 0.01 0.00 0.00 0.00 0.00 0.00 0.00 0.00 0.00 0.00 0.00 0.00 0.01 0.01 0.02 0.02 0.02 0.03 0.03 0.03 0.03 0.02 0.02 0.02
MSLP
1010.51 1010.58 1010.65 1010.73 1010.83 1010.94 1011.07 1011.25 1011.48 1011.77 1012.13 1012.56 1013.04 1013.56 1014.09 1014.60 1015.08 1015.51 1015.87 1016.18 1016.45 1016.71 1016.97 1017.27 1017.60 1017.99 1018.41 1018.85 1019.28 1019.67 1019.99 1020.23 1020.38 1020.43 1020.40 1020.30 1020.15 1019.97 1019.78 1019.59 1019.43 1019.31 1019.23
1011.42 1011.41 1011.37 1011.30 1011.23 1011.17 1011.16 1011.21 1011.36 1011.63 1012.01 1012.49 1013.06 1013.66 1014.28 1014.88 1015.41 1015.87 1016.26 1016.58 1016.85 1017.10 1017.35 1017.64 1017.96 1018.33 1018.73 1019.14 1019.54 1019.90 1020.21 1020.44 1020.59 1020.66 1020.64 1020.56 1020.41 1020.23 1020.02 1019.79 1019.58 1019.39 1019.25
1012.42 1012.35 1012.21 1012.02 1011.81 1011.61 1011.47 1011.43 1011.52 1011.76 1012.15 1012.67 1013.29 1013.96 1014.64 1015.28 1015.86 1016.34 1016.74 1017.07 1017.34 1017.59 1017.84 1018.11 1018.42 1018.75 1019.11 1019.48 1019.84 1020.17 1020.45 1020.67 1020.82 1020.90 1020.91 1020.86 1020.75 1020.59 1020.38 1020.15 1019.90 1019.67 1019.46
1013.47 1013.34 1013.13 1012.86 1012.55 1012.27 1012.04 1011.94 1011.99 1012.21 1012.60 1013.13 1013.77 1014.47 1015.17 1015.83 1016.42 1016.91 1017.31 1017.64 1017.92 1018.17 1018.41 1018.67 1018.95 1019.25 1019.57 1019.89 1020.19 1020.48 1020.73 1020.94 1021.09 1021.20 1021.25 1021.25 1021.18 1021.06 1020.88 1020.66 1020.41 1020.15 1019.90
1014.47 1014.31 1014.07 1013.76 1013.43 1013.11 1012.86 1012.73 1012.77 1012.98 1013.36 1013.88 1014.51 1015.19 1015.87 1016.51 1017.07 1017.55 1017.94 1018.26 1018.54 1018.78 1019.03 1019.28 1019.54 1019.81 1020.08 1020.35 1020.61 1020.86 1021.07 1021.27 1021.43 1021.56 1021.65 1021.69 1021.68 1021.62 1021.48 1021.30 1021.06 1020.79 1020.51
1015.36 1015.21 1014.98 1014.69 1014.38 1014.08 1013.86 1013.76 1013.81 1014.02 1014.39 1014.88 1015.46 1016.09 1016.71 1017.28 1017.79 1018.23 1018.59 1018.90 1019.17 1019.42 1019.66 1019.91 1020.16 1020.40 1020.65 1020.88 1021.09 1021.30 1021.48 1021.66 1021.82 1021.96 1022.08 1022.16 1022.20 1022.18 1022.10 1021.95 1021.74 1021.49 1021.19
1016.10 1015.98 1015.80 1015.57 1015.34 1015.12 1014.97 1014.93 1015.02 1015.24 1015.59 1016.05 1016.56 1017.10 1017.63 1018.12 1018.56 1018.93 1019.25 1019.54 1019.80 1020.05 1020.30 1020.55 1020.79 1021.03 1021.25 1021.45 1021.62 1021.79 1021.94 1022.08 1022.22 1022.36 1022.48 1022.58 1022.65 1022.67 1022.62 1022.52 1022.34 1022.11 1021.83
1016.66 1016.60 1016.50 1016.37 1016.25 1016.15 1016.11 1016.15 1016.30 1016.54 1016.88 1017.29 1017.73 1018.18 1018.61 1018.99 1019.34 1019.64 1019.92 1020.17 1020.43 1020.68 1020.94 1021.20 1021.45 1021.67 1021.87 1022.05 1022.19 1022.31 1022.41 1022.51 1022.62 1022.72 1022.82 1022.91 1022.97 1023.00 1022.98 1022.91 1022.77 1022.57 1022.32
1017.07 1017.09 1017.09 1017.08 1017.08 1017.11 1017.19 1017.33 1017.55 1017.83 1018.17 1018.53 1018.90 1019.25 1019.58 1019.87 1020.12 1020.36 1020.59 1020.82 1021.06 1021.31 1021.58 1021.85 1022.10 1022.33 1022.51 1022.66 1022.77 1022.84 1022.89 1022.94 1022.98 1023.02 1023.07 1023.11 1023.15 1023.16 1023.14 1023.08 1022.97 1022.81 1022.60
1017.42 1017.51 1017.61 1017.72 1017.84 1017.99 1018.19 1018.43 1018.72 1019.03 1019.37 1019.70 1020.01 1020.29 1020.53 1020.73 1020.91 1021.09 1021.27 1021.48 1021.71 1021.96 1022.24 1022.51 1022.76 1022.98 1023.15 1023.27 1023.34 1023.37 1023.36 1023.33 1023.30 1023.26 1023.23 1023.20 1023.18 1023.15 1023.11 1023.05 1022.97 1022.84 1022.68
1017.78 1017.95 1018.13 1018.33 1018.55 1018.80 1019.09 1019.41 1019.76 1020.11 1020.46 1020.77 1021.04 1021.26 1021.44 1021.58 1021.70 1021.83 1021.98 1022.16 1022.38 1022.63 1022.90 1023.16 1023.41 1023.61 1023.77 1023.86 1023.89 1023.87 1023.80 1023.71 1023.59 1023.47 1023.35 1023.23 1023.13 1023.05 1022.97 1022.89 1022.81 1022.71 1022.58
1018.26 1018.48 1018.71 1018.96 1019.24 1019.56 1019.92 1020.30 1020.69 1021.07 1021.42 1021.73 1021.98 1022.16 1022.30 1022.40 1022.49 1022.59 1022.71 1022.87 1023.07 1023.30 1023.55 1023.79 1024.02 1024.20 1024.33 1024.39 1024.39 1024.33 1024.22 1024.05 1023.86 1023.66 1023.45 1023.25 1023.07 1022.91 1022.78 1022.68 1022.59 1022.50 1022.39
1018.89 1019.14 1019.39 1019.66 1019.97 1020.31 1020.69 1021.10 1021.52 1021.92 1022.28 1022.58 1022.82 1023.00 1023.12 1023.20 1023.27 1023.34 1023.44 1023.57 1023.74 1023.94 1024.15 1024.37 1024.56 1024.71 1024.81 1024.84 1024.82 1024.72 1024.57 1024.36 1024.12 1023.85 1023.57 1023.29 1023.04 1022.81 1022.62 1022.47 1022.36 1022.26 1022.16
1019.67 1019.92 1020.17 1020.42 1020.72 1021.06 1021.44 1021.85 1022.27 1022.67 1023.03 1023.34 1023.58 1023.75 1023.87 1023.94 1024.00 1024.05 1024.13 1024.23 1024.36 1024.51 1024.68 1024.84 1024.99 1025.10 1025.17 1025.18 1025.13 1025.02 1024.85 1024.62 1024.34 1024.03 1023.70 1023.37 1023.04 1022.75 1022.51 1022.30 1022.15 1022.02 1021.90
1020.55 1020.78 1021.00 1021.23 1021.49 1021.80 1022.15 1022.54 1022.95 1023.34 1023.70 1024.00 1024.24 1024.41 1024.53 1024.60 1024.64 1024.68 1024.73 1024.79 1024.88 1024.98 1025.09 1025.20 1025.29 1025.36 1025.39 1025.38 1025.32 1025.20 1025.03 1024.80 1024.51 1024.18 1023.82 1023.44 1023.07 1022.72 1022.41 1022.15 1021.94 1021.76 1021.60
1021.44 1021.66 1021.84 1022.03 1022.25 1022.51 1022.83 1023.18 1023.56 1023.94 1024.28 1024.57 1024.80 1024.97 1025.08 1025.14 1025.17 1025.19 1025.21 1025.23 1025.27 1025.32 1025.36 1025.41 1025.45 1025.47 1025.47 1025.44 1025.37 1025.26 1025.10 1024.88 1024.60 1024.27 1023.89 1023.48 1023.07 1022.66 1022.29 1021.97 1021.69 1021.46 1021.25
1022.27 1022.47 1022.62 1022.77 1022.95 1023.17 1023.45 1023.77 1024.11 1024.45 1024.77 1025.04 1025.25 1025.40 1025.50 1025.55 1025.56 1025.56 1025.55 1025.54 1025.53 1025.52 1025.52 1025.51 1025.49 1025.47 1025.44 1025.40 1025.32 1025.22 1025.07 1024.86 1024.60 1024.27 1023.88 1023.45 1023.00 1022.54 1022.11 1021.72 1021.37 1021.07 1020.80
1022.97 1023.15 1023.29 1023.41 1023.56 1023.76 1024.00 1024.28 1024.59 1024.89 1025.17 1025.40 1025.58 1025.71 1025.78 1025.81 1025.81 1025.79 1025.76 1025.72 1025.67 1025.62 1025.58 1025.52 1025.47 1025.42 1025.36 1025.29 1025.22 1025.11 1024.97 1024.77 1024.51 1024.18 1023.78 1023.32 1022.83 1022.32 1021.83 1021.37 1020.95 1020.59 1020.26
1023.52 1023.70 1023.83 1023.95 1024.09 1024.27 1024.48 1024.73 1024.99 1025.25 1025.48 1025.67 1025.82 1025.91 1025.95 1025.96 1025.94 1025.91 1025.86 1025.80 1025.74 1025.67 1025.60 1025.52 1025.44 1025.36 1025.28 1025.20 1025.10 1024.99 1024.84 1024.63 1024.36 1024.01 1023.59 1023.10 1022.57 1022.02 1021.47 1020.94 1020.47 1020.05 1019.68
1023.94 1024.12 1024.26 1024.39 1024.53 1024.69 1024.89 1025.11 1025.33 1025.55 1025.73 1025.87 1025.96 1026.02 1026.03 1026.02 1025.99 1025.95 1025.90 1025.85 1025.79 1025.72 1025.64 1025.56 1025.46 1025.36 1025.26 1025.15 1025.04 1024.90 1024.72 1024.49 1024.18 1023.81 1023.35 1022.83 1022.25 1021.65 1021.05 1020.48 1019.96 1019.50 1019.10
1024.27 1024.46 1024.61 1024.75 1024.90 1025.06 1025.24 1025.43 1025.62 1025.78 1025.91 1026.00 1026.05 1026.06 1026.05 1026.02 1025.99 1025.96 1025.93 1025.89 1025.86 1025.81 1025.74 1025.66 1025.56 1025.45 1025.33 1025.19 1025.04 1024.86 1024.64 1024.36 1024.01 1023.59 1023.09 1022.53 1021.91 1021.27 1020.64 1020.03 1019.49 1019.01 1018.61
1024.55 1024.75 1024.91 1025.06 1025.21 1025.37 1025.53 1025.69 1025.84 1025.95 1026.03 1026.07 1026.08 1026.06 1026.03 1026.00 1025.97 1025.96 1025.95 1025.96 1025.95 1025.94 1025.90 1025.83 1025.74 1025.62 1025.47 1025.30 1025.10 1024.87 1024.59 1024.25 1023.85 1023.38 1022.84 1022.23 1021.59 1020.92 1020.27 1019.66 1019.11 1018.63 1018.24
1024.81 1025.01 1025.17 1025.32 1025.46 1025.61 1025.75 1025.88 1025.99 1026.06 1026.10 1026.09 1026.07 1026.03 1025.98 1025.95 1025.95 1025.96 1025.99 1026.04 1026.07 1026.10 1026.09 1026.04 1025.95 1025.82 1025.65 1025.44 1025.19 1024.90 1024.55 1024.16 1023.70 1023.18 1022.59 1021.96 1021.30 1020.63 1019.98 1019.38 1018.84 1018.39 1018.02
1025.05 1025.23 1025.38 1025.51 1025.64 1025.77 1025.89 1025.98 1026.05 1026.09 1026.08 1026.05 1026.00 1025.95 1025.91 1025.90 1025.91 1025.96 1026.03 1026.12 1026.19 1026.25 1026.27 1026.24 1026.15 1026.01 1025.81 1025.56 1025.25 1024.90 1024.50 1024.04 1023.53 1022.97 1022.36 1021.72 1021.06 1020.41 1019.78 1019.20 1018.70 1018.27 1017.93
1025.25 1025.40 1025.52 1025.63 1025.74 1025.83 1025.92 1025.98 1026.02 1026.02 1025.99 1025.94 1025.89 1025.84 1025.81 1025.81 1025.86 1025.94 1026.04 1026.16 1026.28 1026.36 1026.40 1026.38 1026.28 1026.12 1025.89 1025.60 1025.25 1024.84 1024.39 1023.88 1023.34 1022.75 1022.14 1021.51 1020.87 1020.25 1019.66 1019.12 1018.65 1018.26 1017.94
1025.38 1025.50 1025.59 1025.66 1025.73 1025.79 1025.84 1025.87 1025.88 1025.86 1025.82 1025.76 1025.71 1025.67 1025.66 1025.69 1025.77 1025.88 1026.02 1026.16 1026.29 1026.39 1026.44 1026.42 1026.31 1026.13 1025.87 1025.55 1025.15 1024.71 1024.22 1023.69 1023.13 1022.54 1021.94 1021.33 1020.73 1020.15 1019.61 1019.12 1018.69 1018.33 1018.02
Thickness
5774 5779 5782 5784 5784 5781 5778 5778 5777 5776 5773 5768 5762 5756 5751 5747 5744 5741 5738 5734 5729 5726 5722 5716 5711 5707 5703 5699 5695 5692 5687 5683 5681 5678 5675 5674 5673 5670 5667 5665 5662 5659 5657
5766 5770 5773 5775 5775 5774 5772 5773 5772 5771 5769 5766 5760 5753 5746 5739 5735 5732 5728 5723 5720 5716 5712 5708 5703 5698 5694 5690 5687 5684 5679 5675 5672 5669 5665 5662 5661 5660 5660 5657 5654 5651 5648
5756 5758 5760 5762 5765 5764 5765 5767 5765 5764 5763 5760 5753 5745 5737 5730 5724 5719 5714 5710 5707 5704 5701 5697 5694 5689 5685 5681 5678 5675 5671 5665 5661 5660 5657 5652 5649 5647 5648 5646 5643 5640 5637
5747 5748 5751 5752 5755 5756 5758 5759 5757 5756 5754 5751 5745 5738 5729 5719 5713 5708 5702 5697 5694 5691 5688 5684 5682 5678 5674 5670 5667 5665 5661 5657 5651 5648 5645 5642 5639 5635 5634 5633 5631 5629 5625
5733 5736 5739 5742 5744 5745 5746 5747 5746 5744 5741 5738 5733 5727 5719 5711 5703 5696 5691 5685 5681 5678 5674 5671 5668 5665 5660 5657 5654 5651 5648 5645 5640 5636 5633 5629 5625 5622 5619 5616 5613 5613 5611
5719 5721 5725 5728 5729 5731 5732 5733 5732 5728 5726 5723 5719 5714 5707 5699 5691 5684 5678 5672 5668 5664 5661 5657 5655 5651 5647 5643 5640 5637 5633 5630 5626 5622 5619 5614 5610 5606 5603 5599 5596 5594 5594
5705 5707 5710 5712 5713 5714 5716 5717 5715 5711 5709 5707 5703 5699 5693 5686 5679 5672 5666 5660 5654 5650 5645 5642 5639 5636 5632 5628 5625 5622 5618 5615 5611 5607 5603 5599 5595 5592 5588 5583 5579 5577 5576
5691 5693 5695 5696 5697 5697 5697 5698 5697 5694 5692 5690 5685 5680 5676 5670 5663 5657 5652 5646 5640 5635 5631 5628 5623 5619 5616 5613 5609 5605 5602 5598 5594 5591 5587 5582 5578 5575 5571 5566 5561 5557 5553
5675 5677 5679 5680 5679 5679 5678 5678 5678 5676 5673 5670 5666 5662 5657 5653 5647 5641 5636 5631 5626 5621 5617 5613 5609 5604 5601 5597 5593 5589 5584 5581 5578 5574 5569 5565 5561 5557 5553 5548 5544 5539 5533
5661 5662 5664 5664 5663 5661 5660 5660 5660 5657 5654 5651 5648 5644 5639 5635 5630 5625 5620 5615 5610 5606 5602 5597 5593 5588 5584 5580 5576 5571 5567 5563 5559 5556 5551 5547 5543 5539 5535 5530 5525 5521 5516
5647 5647 5648 5648 5647 5646 5645 5643 5641 5639 5635 5632 5629 5625 5621 5617 5613 5609 5604 5599 5594 5590 5585 5580 5575 5570 5565 5561 5557 5552 5548 5545 5541 5537 5534 5529 5526 5521 5517 5513 5508 5503 5499
5634 5634 5634 5634 5632 5630 5628 5626 5624 5621 5618 5615 5613 5609 5604 5600 5596 5591 5586 5582 5578 5573 5568 5563 5557 5551 5545 5541 5537 5533 5529 5525 5521 5517 5514 5511 5509 5504 5500 5496 5492 5488 5484
5621 5620 5620 5618 5617 5614 5612 5611 5608 5605 5602 5599 5595 5591 5586 5582 5578 5573 5569 5565 5561 5556 5551 5545 5538 5532 5526 5522 5518 5513 5509 5505 5502 5499 5496 5493 5491 5487 5484 5480 5477 5473 5471
5609 5607 5605 5603 5601 5599 5598 5595 5592 5590 5587 5583 5579 5574 5569 5564 5560 5556 5552 5548 5543 5537 5532 5526 5519 5513 5508 5503 5499 5495 5491 5487 5484 5482 5479 5477 5475 5472 5470 5467 5463 5460 5457
5597 5594 5591 5589 5586 5584 5582 5580 5577 5574 5571 5566 5561 5556 5552 5547 5543 5539 5534 5530 5525 5519 5514 5507 5501 5496 5490 5485 5480 5476 5473 5469 5467 5465 5464 5463 5462 5460 5457 5454 5450 5448 5445
5586 5583 5580 5577 5574 5571 5568 5564 5561 5558 5555 5551 5545 5541 5536 5531 5526 5522 5517 5512 5507 5501 5496 5489 5483 5478 5473 5468 5464 5460 5455 5453 5451 5449 5449 5448 5448 5446 5443 5441 5440 5439 5436
5574 5570 5567 5564 5560 5557 5553 5550 5547 5544 5540 5536 5531 5526 5521 5516 5511 5506 5501 5495 5489 5484 5478 5472 5466 5460 5455 5451 5447 5444 5441 5438 5436 5434 5434 5434 5435 5432 5430 5428 5428 5428 5429
5562 5558 5554 5551 5547 5544 5541 5538 5534 5530 5525 5520 5516 5511 5506 5501 5496 5491 5485 5479 5473 5468 5462 5456 5450 5444 5439 5435 5431 5429 5426 5424 5423 5422 5422 5421 5421 5421 5419 5419 5420 5421 5423
5551 5547 5543 5539 5536 5532 5529 5525 5520 5516 5511 5507 5503 5498 5493 5487 5482 5476 5470 5465 5459 5453 5447 5442 5436 5430 5425 5421 5418 5415 5412 5410 5410 5411 5412 5412 5412 5413 5413 5413 5414 5417 5421
5539 5535 5531 5528 5524 5520 5517 5512 5508 5503 5499 5495 5491 5486 5481 5475 5469 5463 5457 5451 5445 5439 5433 5428 5422 5417 5412 5408 5405 5403 5400 5399 5400 5402 5404 5406 5407 5409 5410 5410 5412 5414 5419
5529 5526 5521 5517 5513 5510 5506 5501 5496 5492 5489 5484 5480 5475 5470 5464 5458 5451 5445 5438 5432 5425 5420 5415 5410 5405 5401 5397 5394 5393 5391 5391 5393 5395 5398 5402 5405 5408 5411 5413 5414 5417 5420
5519 5516 5511 5506 5503 5500 5496 5491 5486 5483 5479 5475 5470 5466 5460 5455 5449 5441 5434 5427 5420 5414 5408 5404 5399 5395 5391 5389 5387 5387 5388 5389 5390 5393 5396 5401 5405 5409 5413 5417 5419 5421 5423
5511 5506 5502 5497 5493 5490 5487 5482 5479 5475 5471 5466 5461 5457 5452 5446 5440 5433 5426 5418 5411 5405 5400 5395 5391 5388 5386 5384 5384 5385 5386 5388 5390 5394 5399 5403 5408 5412 5416 5419 5422 5424 5425
5502 5497 5493 5488 5484 5482 5479 5475 5472 5468 5464 5459 5454 5450 5444 5439 5433 5427 5420 5413 5406 5400 5395 5391 5387 5384 5383 5382 5383 5384 5387 5390 5393 5397 5402 5407 5411 5415 5418 5421 5424 5426 5426
5495 5490 5486 5481 5478 5475 5472 5469 5466 5462 5457 5453 5449 5444 5440 5434 5428 5422 5416 5410 5405 5400 5395 5390 5386 5384 5383 5383 5384 5384 5388 5391 5394 5398 5403 5408 5412 5416 5420 5423 5426 5428 5428
5489 5484 5480 5477 5473 5470 5467 5464 5462 5458 5453 5449 5445 5440 5436 5431 5426 5419 5412 5409 5405 5401 5397 5393 5390 5388 5386 5387 5388 5390 5393 5396 5399 5402 5405 5409 5413 5416 5420 5423 5426 5428 5429